Погода в Кальчике

Украина / Донецкая область     47°18′26″N   37°35′59″E
темп.,
°C
ветер,
м/с
пор.,
м/с
влажн.,
%
обл.,
%
осадки,
мм/ч
давл.,
гПа
погр.,
м
10 мая, пн
пн1000:00+6зсз410685 0.0 1023211
03:00+5сз410745 0.0 1024235
06:00+5сз410770 0.0 1023276
09:00+11ссз71049100 0.0 10231685
12:00+14ссз81038100 0.0 10212533
15:00+15ссз81038100 0.0 10202475
18:00+13сз7124783 0.0 10181862
21:00+11сз71351100 0.1 10161504
11 мая, вт
вт1100:00+8зсз91584100 3.3 10131208
03:00+8зсз81490100 5.4 1011756
06:00+8с81290100 1.0 1011903
09:00+9ссв697565 1.1 10121190
12:00+11ссв5765100 0.1 10121362
15:00+11с566080 0.5 10131306
18:00+9ссв137798 0.8 1013323
21:00+9юв2385100 1.3 1014134
12 мая, ср
ср1200:00+8вюв358873 0.4 1014140
03:00+7в228868 0.5 101438
06:00+7в369496 0.8 1015192
09:00+12ююв6673100 1.9 10151040
12:00+12ююв7982100 0.6 1015753
15:00+12ююв6117899 1.1 1015752
18:00+14ю59729 0.2 1015917
21:00+11юв22843 0.2 101513
13 мая, чт
чт1300:00+10всв11880 0.0 101511
03:00+9св349241 0.0 101449
06:00+10всв389588 0.0 1014159
09:00+16в697067 0.0 1014548
12:00+20вюв7956100 0.0 1013876
15:00+21вюв8958100 0.0 1012974
18:00+21вюв6106831 0.0 1012839
21:00+17в5138948 0.0 1012303
14 мая, пт
пт1400:00+16в51291100 0.0 1011280
03:00+15в41092100 0.0 1010207
06:00+15всв7108864 0.0 1009163
09:00+20вюв456820 0.3 1010377
12:00+24ююв44555 0.0 1011740
15:00+26ююв334895 0.0 1010764
18:00+24ю33545 0.0 1010314
21:00+18юз11735 0.0 101111